Location: Coupvray
(48.8929°N, 2.7967°E)
Time: 02:31:42
(UTC+00:00)

Cosmos 2322 Rocket - Visible Passes

Search period start: 23 October 2020 00:00
Search period end: 02 November 2020 00:00
Orbit: 831 x 852 km, 71.0° (Epoch: 22 October)

Date Brightness Start Highest point End Pass type
(mag) Time Alt. Az. Time Alt. Az. Time Alt. Az.
23 Oct 4.6 04:40:26 10° N 04:44:08 17° NE 04:47:48 10° ENE visible
24 Oct 4.6 04:25:27 10° N 04:29:02 17° NE 04:32:36 10° ENE visible
25 Oct 4.7 04:10:27 10° N 04:13:56 16° NE 04:17:25 10° ENE visible
26 Oct 4.7 03:55:28 10° N 03:58:51 16° NNE 04:02:12 10° ENE visible
26 Oct 2.9 05:38:34 10° NNW 05:44:12 58° ENE 05:49:46 10° SE visible
27 Oct 4.7 03:40:29 10° N 03:43:45 15° NNE 03:47:00 10° ENE visible
27 Oct 2.9 05:23:32 10° NNW 05:29:09 55° ENE 05:34:42 10° SE visible
28 Oct 4.8 03:25:29 10° N 03:28:39 15° NNE 03:31:48 10° ENE visible
28 Oct 3.0 05:08:31 10° NNW 05:14:06 53° NE 05:19:37 10° SE visible
29 Oct 4.8 03:10:31 10° N 03:13:33 14° NNE 03:16:35 10° ENE visible
29 Oct 3.0 04:53:29 10° NNW 04:59:02 51° NE 05:04:32 10° SE visible
30 Oct 4.8 02:55:31 10° N 02:58:27 14° NNE 03:01:22 10° ENE visible
30 Oct 3.1 04:38:28 10° NNW 04:43:59 49° NE 04:49:27 10° SE visible
31 Oct 4.9 02:40:34 10° N 02:43:21 14° NNE 02:46:08 10° ENE visible
31 Oct 3.1 04:23:26 10° NNW 04:28:56 47° NE 04:34:21 10° SE visible
01 Nov 4.8 02:26:24 12° N 02:28:14 13° NNE 02:30:54 10° ENE visible
01 Nov 3.2 04:08:24 10° NNW 04:13:52 45° NE 04:19:15 10° SE visible
01 Nov 2.8 05:52:42 10° NW 05:57:49 35° WSW 06:02:52 10° S visible
